Shirley, NY

5:44 AM EDT on June 24, 2017 (GMT -0400)
Brookhaven

Weather History for KHWV - November, 2013

Change the Weather History Date:

Tuesday, November 12, 2013

  Actual Average (KISP) Record (KISP)
Temperature  
Mean Temperature 40 °F -  
Max Temperature 51 °F 50 °F 67 °F (2014)
Min Temperature 30 °F 34 °F 25 °F (2001)
Degree Days  
Heating Degree Days 24    
Moisture  
Dew Point 27 °F    
Average Humidity 70    
Maximum Humidity 93    
Minimum Humidity 52    
Precipitation  
Precipitation 0.07 in - - ()
Sea Level Pressure  
Sea Level Pressure 30.11 in    
Wind  
Wind Speed 12 mph (NNW)    
Max Wind Speed 17 mph    
Max Gust Speed 30 mph    
Visibility 7 miles    
Events Rain , Snow    
Averages and records for this station are not official NWS values.
T = Trace of Precipitation, MM = Missing Value Source: NWS Daily Summary

Daily Weather History Graph

Daily Weather History Graph

Search for Another Location

Airport or City:

Trip Planner

Search our weather history database for the weather conditions in past years. The results will help you decide how hot, cold, wet, or windy it might be!

Date:

Astronomy

Nov. 12, 2013 Rise Set
Actual Time 6:35 AM EST 4:35 PM EST
Civil Twilight 6:05 AM EST 5:04 PM EST
Nautical Twilight 5:32 AM EST 5:37 PM EST
Astronomical Twilight 5:00 AM EST 6:10 PM EST
Moon 1:50 PM EST (11/12) 1:20 AM EST (11/12)
Length of Visible Light 10h 58m
Length of Day
10h 00m
Waxing Gibbous, 76% of the Moon is Illuminated
Nov 12
Waxing Gibbous
Nov 17
Full
Nov 25
Last Quarter
Dec 2
New
Dec 9
First Quarter

Hourly Weather History & Observations

Time (EST) Temp. Windchill Dew Point Humidity Pressure Visibility Wind Dir Wind Speed Gust Speed Precip Events Conditions
12:56 AM 51.1 °F - 36.0 °F 56% 29.96 in 10.0 mi SW 9.2 mph - 0.00 in   Overcast
1:56 AM 51.1 °F - 35.1 °F 54% 29.96 in 10.0 mi SW 11.5 mph - N/A   Overcast
2:56 AM 51.1 °F - 35.1 °F 54% 29.95 in 10.0 mi SW 10.4 mph - N/A   Overcast
3:56 AM 50.0 °F - 35.1 °F 57% 29.94 in 10.0 mi WNW 5.8 mph - N/A   Overcast
4:56 AM 48.9 °F - 35.1 °F 59% 29.95 in 10.0 mi SW 4.6 mph - N/A   Overcast
5:56 AM 48.0 °F - 35.1 °F 61% 29.97 in 10.0 mi NNW 10.4 mph - N/A   Overcast
6:35 AM 42.8 °F 35.1 °F 33.8 °F 70% 30.02 in 10.0 mi NNW 16.1 mph 29.9 mph 0.00 in Rain Light Rain
6:56 AM 39.9 °F 32.5 °F 33.1 °F 77% 30.04 in 10.0 mi North 12.7 mph 23.0 mph 0.00 in Rain Light Rain
7:56 AM 35.1 °F 26.4 °F 32.0 °F 89% 30.09 in 6.0 mi NNW 12.7 mph 21.9 mph 0.04 in Snow Light Snow
8:14 AM 35.6 °F 27.1 °F 32.0 °F 87% 30.09 in 2.5 mi North 12.7 mph 21.9 mph 0.01 in Snow Light Snow
8:25 AM 33.8 °F 24.8 °F 32.0 °F 93% 30.09 in 3.0 mi NNW 12.7 mph - 0.01 in Snow Light Snow
8:50 AM 33.8 °F 23.2 °F 32.0 °F 93% 30.10 in 2.5 mi North 17.3 mph 24.2 mph 0.02 in Snow Light Snow
8:51 AM 34.0 °F 23.4 °F 32.0 °F 92% 30.10 in 2.5 mi North 17.3 mph 24.2 mph 0.02 in Snow Light Snow
8:59 AM 33.8 °F 23.2 °F 30.2 °F 87% 30.10 in 1.0 mi NNW 17.3 mph 25.3 mph 0.00 in Snow Light Snow
9:03 AM 33.8 °F 23.5 °F 30.2 °F 87% 30.11 in 0.8 mi North 16.1 mph 25.3 mph 0.00 in Snow Light Snow
9:11 AM 33.8 °F 24.8 °F 30.2 °F 87% 30.11 in 0.8 mi North 12.7 mph 21.9 mph 0.00 in Snow Light Snow
9:43 AM 30.2 °F 18.5 °F 28.4 °F 93% 30.12 in 0.8 mi North 17.3 mph 29.9 mph 0.01 in Snow Light Snow
9:52 AM 30.2 °F 20.2 °F 28.4 °F 93% 30.12 in 1.5 mi North 12.7 mph 25.3 mph 0.01 in Snow Light Snow
9:56 AM 30.9 °F 21.2 °F 28.9 °F 92% 30.12 in 2.0 mi NNW 12.7 mph - 0.01 in Snow Light Snow
10:06 AM 32.0 °F 22.5 °F 30.2 °F 93% 30.11 in 8.0 mi NNW 12.7 mph - 0.00 in Snow Light Snow
10:17 AM 33.8 °F 24.8 °F 28.4 °F 81% 30.12 in 9.0 mi NNW 12.7 mph 20.7 mph 0.00 in Snow Light Snow
10:56 AM 34.0 °F 23.4 °F 25.0 °F 70% 30.12 in 10.0 mi North 17.3 mph 24.2 mph 0.00 in Rain Light Rain
11:56 AM 34.0 °F 25.5 °F 23.0 °F 64% 30.11 in 10.0 mi NNW 11.5 mph - 0.00 in   Overcast
12:56 PM 35.1 °F 26.9 °F 23.0 °F 61% 30.12 in 10.0 mi NNW 11.5 mph - N/A   Overcast
1:56 PM 36.0 °F 27.5 °F 21.0 °F 55% 30.12 in 10.0 mi NNW 12.7 mph 21.9 mph N/A   Clear
2:56 PM 36.0 °F 27.5 °F 19.9 °F 52% 30.14 in 10.0 mi NNW 12.7 mph 23.0 mph N/A   Clear
3:56 PM 35.1 °F 26.9 °F 19.9 °F 54% 30.17 in 10.0 mi NNW 11.5 mph - N/A   Clear
4:56 PM 34.0 °F 25.0 °F 19.0 °F 54% 30.20 in 10.0 mi NNW 12.7 mph 20.7 mph N/A   Clear
5:56 PM 34.0 °F 25.0 °F 19.9 °F 56% 30.21 in 10.0 mi NNW 12.7 mph - N/A   Clear
6:56 PM 34.0 °F 26.0 °F 19.0 °F 54% 30.23 in 10.0 mi NNW 10.4 mph 20.7 mph N/A   Clear
7:56 PM 33.1 °F 24.4 °F 18.0 °F 54% 30.25 in 10.0 mi NNW 11.5 mph 23.0 mph N/A   Clear
8:56 PM 33.1 °F 24.9 °F 17.1 °F 52% 30.26 in 10.0 mi NNW 10.4 mph 26.5 mph N/A   Clear
9:56 PM 32.0 °F 23.0 °F 17.1 °F 54% 30.25 in 10.0 mi NNW 11.5 mph 20.7 mph N/A   Clear
10:56 PM 30.9 °F 22.2 °F 17.1 °F 57% 30.25 in 10.0 mi NNW 10.4 mph - N/A   Clear
11:56 PM 30.9 °F 21.7 °F 17.1 °F 57% 30.26 in 10.0 mi NNW 11.5 mph - N/A   Clear